Wind_Speed
28 27 26 27 28 28 28 27 28 29 31 32 31 29 29 29 30 31 31 31 31 31 31 30 31 30 29 28 28 29 29 29 29 29 29 29 29 29 29 30 32 32 31
29 27 26 26 28 27 26 26 27 29 30 31 31 30 30 29 29 29 31 31 32 32 32 31 31 31 31 30 30 30 30 30 29 30 30 30 30 31 31 32 33 34 34
28 28 27 26 27 26 26 27 27 28 30 31 31 30 30 29 29 30 30 31 31 32 32 32 33 32 32 31 31 31 31 31 31 31 32 32 32 32 33 34 34 35 36
29 28 27 26 26 26 26 28 28 29 30 31 31 31 31 31 31 31 32 33 33 33 34 34 34 33 33 33 33 33 33 33 33 33 33 33 34 34 35 35 36 37 37
30 29 28 28 27 27 27 28 29 30 31 32 32 31 31 33 33 32 32 33 34 35 35 35 35 35 34 34 34 34 35 35 35 35 35 36 37 37 37 37 37 38 38
30 29 29 29 29 29 28 27 29 31 31 32 33 31 32 33 34 33 34 35 35 35 35 36 36 36 36 36 36 36 37 37 37 38 38 38 39 39 40 40 39 39 40
32 31 30 29 30 30 29 28 29 31 32 33 34 32 32 34 35 35 36 37 37 36 37 37 37 37 37 37 37 37 38 39 39 40 40 40 40 41 42 42 42 42 42
31 31 31 30 31 30 29 29 30 31 32 32 33 33 33 34 35 35 36 38 38 39 38 38 38 39 40 40 40 40 40 41 41 42 42 43 43 43 43 44 44 43 43
30 31 31 30 31 31 30 30 30 31 32 32 32 31 32 32 33 33 35 37 39 39 40 40 40 41 42 43 42 42 43 43 43 43 44 45 44 44 45 46 46 45 45
30 31 31 31 32 32 32 31 31 31 32 32 33 32 32 33 33 34 35 36 37 39 39 41 42 42 43 44 44 44 44 44 45 45 45 46 46 46 46 47 47 48 49
32 32 32 32 32 33 33 33 32 32 33 33 34 33 33 33 33 35 36 38 39 40 41 42 42 43 44 45 45 46 46 46 47 47 47 47 48 48 48 49 49 50 51
33 32 32 33 33 34 34 35 35 35 35 36 36 36 36 36 36 36 36 37 38 40 41 41 42 43 44 45 45 46 47 47 48 48 49 49 49 49 50 50 51 52 53
33 34 33 33 34 34 36 37 37 38 37 38 39 38 38 38 38 38 38 39 40 41 42 43 43 44 45 46 47 47 47 47 48 49 50 51 50 50 51 52 53 54 55
34 35 35 35 36 36 36 37 39 40 40 40 40 40 40 41 41 41 41 42 43 43 44 45 45 45 46 47 48 49 49 49 50 51 51 52 53 54 54 55 55 55 55
36 37 36 37 37 38 38 38 39 40 42 42 42 42 42 43 44 44 45 45 45 46 46 47 47 47 49 49 50 51 51 52 52 53 53 54 55 55 56 56 55 55 55
38 38 38 39 39 39 39 39 40 40 41 42 43 43 43 44 45 46 47 47 47 48 48 48 49 50 50 51 52 52 53 53 54 54 55 55 55 55 56 56 55 55 55
40 40 40 41 41 41 41 41 42 42 42 43 43 44 45 45 46 47 48 48 48 48 49 49 50 51 52 53 53 54 54 54 55 54 55 55 55 56 56 56 56 56 56
41 41 42 42 42 42 42 43 43 43 43 44 44 45 45 46 46 47 48 48 49 49 49 49 50 51 51 52 53 53 54 55 54 54 54 55 55 55 56 56 57 57 57
42 41 42 42 43 43 43 44 44 45 45 45 45 45 46 46 47 48 49 50 50 50 50 50 50 51 51 52 52 53 54 54 54 55 55 55 55 55 56 57 57 57 57
42 42 42 42 43 43 43 43 44 45 45 46 46 47 47 48 48 49 50 50 50 50 50 50 50 51 51 52 52 53 54 54 55 55 55 55 55 55 56 56 56 56 55
41 41 42 42 43 43 44 44 44 44 45 46 47 48 48 48 49 49 49 49 49 49 49 50 50 51 51 51 52 53 54 55 55 54 55 55 56 56 56 55 55 55 54
39 40 41 41 41 42 43 44 44 45 45 46 47 47 48 48 48 48 48 48 49 49 50 50 50 51 51 52 53 53 54 55 55 54 54 54 55 55 54 54 54 53 53
37 38 39 39 40 41 42 44 44 44 44 45 45 46 46 46 46 46 47 47 48 49 50 50 51 51 52 53 53 54 54 54 54 54 54 54 53 53 53 52 52 51 51
35 36 37 39 40 41 42 43 44 44 43 43 44 44 45 45 45 45 46 47 47 48 48 50 51 51 52 53 53 54 53 53 53 52 52 51 51 51 51 49 49 49 49
34 35 36 38 39 40 40 41 41 42 43 43 43 44 44 44 44 45 45 46 46 47 48 49 50 50 50 51 52 51 51 50 50 50 49 49 48 48 47 47 47 47 47
33 35 36 37 38 38 39 40 41 42 42 42 43 43 43 43 44 44 45 45 46 47 48 48 49 49 50 50 49 49 48 48 48 48 47 47 46 45 45 45 45 46 46
Wind_Direction
240 241 240 238 237 236 236 235 235 235 235 233 233 235 236 236 236 235 236 240 242 242 244 246 247 251 254 258 262 265 265 267 268 268 268 268 269 270 270 269 268 268 269
240 241 241 240 239 238 237 235 235 235 234 234 235 239 239 238 238 238 240 242 244 245 247 249 251 252 255 259 264 267 269 269 269 268 267 267 268 270 272 272 270 270 271
239 240 241 241 239 240 239 236 236 236 234 234 238 240 241 240 239 239 240 242 245 246 249 252 253 254 256 259 263 266 269 271 270 269 268 267 267 269 272 273 272 271 271
239 240 240 241 239 237 236 236 237 238 237 237 239 242 242 241 240 241 243 245 247 250 251 253 253 254 257 259 262 266 269 271 271 271 271 271 270 271 273 274 273 272 271
241 241 241 241 241 238 236 238 239 239 237 238 240 245 246 243 242 243 245 248 251 252 254 255 253 255 258 261 263 267 269 271 271 271 272 273 273 273 275 275 275 274 273
241 241 243 242 240 238 237 239 240 240 239 240 242 247 247 245 244 246 248 250 251 253 254 255 255 257 259 262 265 267 270 272 272 272 273 274 275 275 275 275 276 275 274
241 241 242 243 242 240 239 240 242 242 241 242 243 248 250 248 247 249 250 251 252 254 255 255 257 259 260 263 265 268 270 271 272 272 273 274 276 275 275 275 275 276 275
242 242 243 243 241 242 242 243 243 244 243 245 245 248 251 250 249 251 253 253 255 255 256 257 259 260 261 263 265 268 271 272 272 272 272 273 274 275 276 275 276 275 274
245 244 246 245 242 241 243 245 245 244 244 246 249 253 252 251 252 254 254 255 256 256 257 260 261 263 264 266 267 268 270 271 272 271 271 273 274 275 276 275 275 276 275
248 247 246 246 243 242 243 246 246 246 246 247 251 254 253 254 255 255 255 255 256 258 260 262 263 264 266 268 269 269 271 271 272 271 271 272 273 274 275 275 275 276 276
250 249 248 248 245 243 245 247 247 248 248 247 249 252 255 258 259 258 258 258 259 262 263 263 264 266 267 270 270 271 270 271 271 271 271 272 273 274 274 275 276 277 278
252 252 250 248 247 244 245 247 248 248 248 249 250 254 255 257 259 261 262 263 263 263 264 264 266 268 269 270 271 271 271 272 272 272 272 273 274 275 276 276 278 278 278
252 252 251 248 248 247 245 246 248 248 250 251 252 255 257 258 259 260 261 263 264 265 265 266 268 269 270 271 272 271 272 273 273 272 273 274 274 275 276 277 279 279 279
250 250 250 249 249 249 248 248 248 249 250 252 254 255 257 259 260 261 263 264 265 266 266 267 268 269 271 271 271 271 272 272 273 273 274 275 276 276 277 279 280 281 280
249 249 249 249 250 251 250 250 250 251 252 254 255 257 258 261 262 262 264 266 267 268 268 268 268 269 270 271 271 271 272 272 272 273 274 275 276 278 279 279 280 280 280
249 249 249 249 250 251 251 251 252 253 254 256 257 258 260 261 262 263 265 267 268 269 269 271 271 271 272 273 272 272 272 272 273 273 274 275 276 278 278 279 279 279 280
249 250 251 251 250 251 252 252 253 254 255 257 259 260 262 263 264 265 267 268 269 270 272 273 273 273 273 273 273 273 274 274 274 275 276 277 278 279 279 279 279 280 280
250 251 251 252 252 252 253 253 254 255 257 258 260 262 263 264 265 267 269 270 271 272 273 274 274 274 273 273 274 274 275 276 276 277 278 279 279 278 279 279 280 280 280
249 249 251 252 253 254 255 256 256 257 259 260 262 264 265 266 267 268 270 271 271 272 273 274 274 275 274 274 274 275 276 276 276 277 278 279 279 279 279 280 281 281 281
249 250 251 252 253 255 256 257 258 259 260 262 264 266 267 268 269 270 271 272 272 272 273 274 275 276 275 275 276 277 277 277 276 277 277 278 279 279 280 280 280 281 281
251 251 251 252 253 254 255 256 258 260 262 264 265 267 268 269 270 271 272 272 272 273 273 274 275 276 276 276 276 277 278 278 277 277 278 278 279 280 280 280 281 281 281
254 253 253 253 254 255 255 257 259 262 264 266 267 268 269 269 270 271 272 273 273 273 274 275 275 276 276 277 277 278 278 278 278 278 278 278 279 280 280 280 280 281 281
254 254 254 254 255 256 258 258 260 262 264 266 267 268 268 269 269 271 272 273 274 274 275 275 276 277 278 278 278 279 279 279 279 279 279 279 280 280 280 279 279 280 280
254 254 254 255 255 256 257 260 261 262 264 265 265 266 266 268 269 271 272 274 275 275 276 276 277 277 278 278 279 279 279 279 280 280 280 279 280 280 279 278 278 278 279
254 254 254 255 256 257 259 261 261 262 263 264 265 265 267 269 270 272 274 275 276 276 278 278 279 279 279 279 280 280 280 279 279 279 279 279 279 278 278 277 277 278 279
256 255 256 257 258 259 260 261 262 263 263 264 265 266 268 270 272 273 275 277 278 278 279 280 280 280 280 280 280 280 280 279 279 279 279 279 279 278 278 278 278 279 280
Height
5714 5716 5718 5720 5723 5726 5728 5731 5734 5737 5740 5743 5747 5750 5754 5758 5761 5764 5768 5771 5774 5777 5780 5783 5786 5788 5789 5791 5792 5793 5793 5793 5794 5795 5795 5796 5796 5797 5797 5797 5798 5799 5800
5708 5711 5713 5716 5718 5721 5723 5726 5729 5732 5735 5739 5742 5745 5748 5752 5756 5759 5762 5765 5768 5771 5773 5776 5778 5781 5783 5784 5786 5786 5787 5787 5787 5788 5788 5789 5790 5790 5790 5791 5791 5792 5792
5703 5706 5708 5711 5714 5716 5719 5721 5724 5727 5730 5734 5737 5740 5743 5746 5750 5753 5756 5759 5762 5764 5767 5770 5772 5774 5776 5777 5778 5779 5780 5780 5780 5780 5781 5782 5783 5783 5784 5783 5784 5784 5784
5698 5701 5704 5706 5709 5711 5713 5716 5719 5722 5725 5728 5731 5734 5737 5740 5743 5746 5749 5752 5755 5758 5760 5762 5764 5766 5768 5769 5771 5772 5772 5772 5772 5772 5773 5774 5774 5775 5776 5776 5775 5776 5776
5693 5696 5698 5701 5703 5706 5708 5711 5714 5716 5719 5723 5726 5728 5731 5734 5737 5740 5742 5745 5748 5751 5753 5754 5757 5758 5760 5761 5763 5763 5764 5764 5764 5765 5765 5765 5766 5766 5766 5767 5767 5767 5767
5687 5690 5692 5695 5697 5699 5702 5705 5708 5711 5713 5716 5719 5722 5724 5727 5730 5733 5736 5739 5741 5743 5745 5747 5748 5750 5752 5753 5754 5755 5755 5755 5755 5756 5756 5756 5757 5757 5757 5757 5757 5757 5757
5681 5684 5687 5689 5691 5694 5696 5699 5702 5705 5708 5710 5713 5716 5718 5720 5723 5725 5728 5731 5733 5735 5737 5738 5740 5741 5743 5744 5745 5745 5746 5746 5746 5746 5747 5747 5747 5747 5747 5747 5747 5747 5747
5675 5677 5680 5683 5685 5688 5690 5693 5696 5698 5701 5704 5707 5709 5711 5713 5715 5717 5720 5722 5724 5726 5728 5729 5731 5732 5733 5734 5735 5735 5736 5736 5736 5736 5736 5737 5737 5736 5736 5736 5736 5736 5736
5668 5671 5673 5676 5678 5681 5684 5686 5689 5691 5694 5696 5699 5701 5703 5705 5707 5709 5711 5713 5715 5717 5718 5720 5721 5722 5723 5724 5725 5725 5725 5725 5725 5725 5725 5726 5725 5725 5724 5724 5724 5724 5724
5661 5663 5666 5669 5671 5674 5677 5680 5682 5684 5687 5689 5692 5694 5696 5698 5699 5701 5703 5704 5706 5707 5709 5710 5711 5712 5713 5713 5714 5714 5714 5714 5714 5714 5714 5714 5714 5713 5712 5712 5711 5710 5710
5653 5656 5659 5661 5664 5667 5670 5672 5675 5677 5680 5682 5684 5686 5688 5690 5691 5693 5694 5695 5697 5698 5699 5700 5700 5701 5702 5702 5702 5702 5702 5702 5702 5702 5702 5702 5702 5701 5700 5699 5698 5697 5696
5645 5648 5651 5654 5656 5659 5662 5664 5667 5670 5672 5675 5676 5678 5680 5681 5683 5684 5685 5686 5687 5688 5688 5689 5689 5690 5690 5690 5690 5690 5690 5690 5690 5690 5690 5689 5689 5688 5687 5686 5685 5684 5682
5637 5639 5642 5645 5648 5651 5654 5656 5659 5662 5664 5666 5668 5670 5671 5673 5674 5675 5676 5677 5677 5677 5678 5678 5678 5678 5678 5678 5677 5677 5677 5677 5676 5677 5676 5676 5675 5675 5674 5672 5671 5669 5667
5628 5631 5634 5636 5639 5642 5645 5648 5650 5653 5655 5657 5659 5660 5662 5663 5664 5665 5665 5666 5666 5667 5667 5666 5666 5666 5665 5665 5664 5664 5664 5664 5663 5663 5663 5662 5661 5660 5659 5658 5656 5654 5652
5620 5622 5625 5627 5630 5633 5636 5638 5641 5643 5646 5648 5649 5651 5652 5653 5653 5654 5654 5655 5655 5655 5655 5654 5653 5652 5652 5651 5651 5650 5650 5650 5649 5649 5648 5647 5646 5645 5643 5642 5641 5638 5637
5610 5613 5615 5618 5621 5624 5626 5629 5631 5633 5635 5637 5639 5640 5641 5642 5642 5643 5643 5643 5643 5643 5642 5641 5641 5640 5639 5638 5637 5636 5635 5635 5634 5634 5633 5632 5630 5629 5628 5627 5625 5623 5621
5600 5603 5606 5608 5611 5613 5616 5618 5620 5622 5624 5626 5628 5629 5629 5630 5630 5631 5631 5631 5630 5630 5629 5628 5627 5626 5625 5623 5622 5621 5621 5620 5620 5618 5617 5616 5615 5613 5612 5611 5610 5608 5606
5589 5592 5595 5597 5600 5602 5605 5607 5609 5611 5613 5614 5616 5617 5617 5618 5618 5618 5618 5617 5617 5616 5615 5614 5613 5612 5611 5609 5608 5607 5606 5606 5605 5603 5602 5601 5599 5597 5596 5595 5594 5592 5590
5578 5581 5584 5586 5589 5591 5593 5595 5597 5599 5601 5603 5604 5604 5605 5605 5605 5605 5604 5604 5603 5602 5601 5600 5599 5598 5597 5595 5594 5592 5592 5591 5590 5589 5587 5585 5584 5582 5580 5578 5577 5576 5574
5567 5570 5573 5575 5578 5580 5582 5584 5585 5587 5589 5590 5591 5591 5592 5592 5592 5591 5590 5590 5589 5588 5587 5587 5585 5584 5582 5581 5579 5577 5576 5576 5575 5574 5572 5570 5568 5566 5564 5562 5561 5560 5558
5556 5559 5561 5564 5566 5568 5570 5572 5573 5575 5576 5577 5578 5578 5579 5578 5578 5577 5577 5576 5575 5574 5573 5572 5571 5570 5568 5566 5564 5562 5561 5560 5559 5558 5557 5555 5552 5550 5548 5546 5545 5543 5542
5544 5547 5550 5552 5554 5556 5558 5560 5561 5563 5564 5565 5565 5565 5565 5565 5564 5564 5563 5562 5561 5560 5559 5558 5557 5556 5554 5552 5550 5548 5546 5544 5543 5543 5541 5539 5537 5535 5533 5531 5529 5527 5525
5533 5535 5538 5540 5542 5544 5546 5548 5549 5550 5551 5551 5552 5552 5552 5552 5551 5550 5550 5549 5547 5546 5544 5544 5543 5542 5540 5537 5535 5533 5531 5529 5528 5527 5525 5523 5521 5519 5517 5516 5514 5512 5510
5522 5524 5527 5529 5531 5533 5534 5535 5536 5537 5538 5538 5539 5539 5539 5539 5538 5537 5536 5535 5533 5532 5530 5529 5528 5527 5525 5523 5520 5518 5516 5514 5512 5511 5509 5508 5506 5504 5502 5501 5499 5497 5496
5512 5514 5515 5517 5519 5521 5522 5523 5524 5524 5525 5526 5526 5526 5526 5525 5525 5524 5523 5521 5520 5518 5516 5514 5513 5511 5510 5508 5505 5502 5501 5499 5497 5496 5495 5493 5492 5490 5488 5487 5485 5484 5483
5502 5503 5504 5506 5507 5508 5510 5511 5511 5512 5513 5513 5513 5513 5513 5513 5512 5511 5510 5508 5506 5504 5502 5499 5498 5496 5494 5492 5490 5488 5486 5484 5483 5481 5480 5479 5477 5476 5475 5474 5472 5471 5470